Overview Statistics Trail Chart Weather Telemetry Raw packets
 

This is the latest recevied weather packets stored in our database for station/object NY3Q. If no packets are shown the sender has not sent any weather packets the latest 10 day(s).

<< 108 109 110 111 112 113 114 >>
Time Temp. Humidity Pressure Rain* Wind** Luminosity Snow
1787788218 24.44° C 88% 1016.1 hPa 1.27 mm - 2 W/m² -
1787787914 24.44° C 87% 1016.1 hPa 3.05 mm - 2 W/m² -
1787787609 24.44° C 85% 1016.1 hPa 3.05 mm - 2 W/m² -
1787787303 25° C 84% 1016.4 hPa 1.27 mm - 2 W/m² -
1787787002 25.56° C 82% 1016.3 hPa 0 mm - 3 W/m² -
1787786697 25.56° C 80% 1016.1 hPa 0 mm - 3 W/m² -
1787786396 26.11° C 79% 1015.9 hPa 0 mm - 5 W/m² -
1787786093 26.67° C 79% 1016 hPa 0 mm - 9 W/m² -
1787785788 27.22° C 79% 1016 hPa 0 mm - 11 W/m² -
1787785483 28.33° C 78% 1016.2 hPa 0 mm - 6 W/m² -
1787785182 28.33° C 78% 1015.7 hPa 0 mm - 7 W/m² -
1787784878 28.33° C 77% 1015.7 hPa 0 mm - 15 W/m² -
1787784577 28.33° C 77% 1015.7 hPa 0 mm - 26 W/m² -
1787784276 28.33° C 77% 1015.6 hPa 0 mm - 28 W/m² -
1787783971 28.89° C 77% 1015.7 hPa 0 mm - 44 W/m² -
1787783667 28.89° C 76% 1015.3 hPa 0 mm - 63 W/m² -
1787783366 28.89° C 75% 1015.5 hPa 0 mm - 68 W/m² -
1787783062 28.89° C 75% 1015.5 hPa 0 mm - 73 W/m² -
1787782761 28.89° C 74% 1015.6 hPa 0 mm - 70 W/m² -
1787782458 28.89° C 74% 1015.5 hPa 0 mm - 81 W/m² -
1787782158 28.89° C 74% 1015.4 hPa 0 mm - 86 W/m² -
1787781853 29.44° C 74% 1015.5 hPa 0 mm - 90 W/m² -
1787781551 29.44° C 74% 1015.6 hPa 0 mm - 98 W/m² -
1787781251 29.44° C 74% 1015.4 hPa 0 mm - 99 W/m² -
1787780948 29.44° C 74% 1015.2 hPa 0 mm - 86 W/m² -

* Rain latest hour (hover to see other rain measurements)
** Current wind speed in m/s (hover to see current wind gust speed)